Location: Dumpton Point
(51.3500°N, 1.4433°E)
Time: 00:58:29
(UTC+00:00)

SR - Visible Passes

Search period start: 25 September 2022 00:00
Search period end: 05 October 2022 00:00
Orbit: 573 x 879 km, 66.7° (Epoch: 24 September)

Date Brightness Start Highest point End Pass type
(mag) Time Alt. Az. Time Alt. Az. Time Alt. Az.
25 Sep ? 01:46:53 22° NNW 01:47:37 23° NNW 01:52:09 10° NNE visible
25 Sep ? 03:27:58 10° NW 03:31:45 17° N 03:35:25 10° NE visible
25 Sep ? 05:10:54 10° NNW 05:15:45 27° NNE 05:20:18 10° E visible
25 Sep ? 23:18:35 18° NE 23:18:35 18° NE 23:19:56 10° NE visible
26 Sep ? 00:57:56 28° NNW 00:57:56 28° NNW 01:01:54 10° NNE visible
26 Sep ? 02:37:18 11° NW 02:40:46 18° N 02:44:31 10° NE visible
26 Sep ? 04:20:35 10° NNW 04:24:57 21° NNE 04:29:06 10° ENE visible
27 Sep ? 00:09:00 26° NNE 00:09:00 26° NNE 00:11:43 10° NNE visible
27 Sep ? 01:48:21 18° NW 01:49:49 20° NNW 01:53:55 10° NNE visible
27 Sep ? 03:30:05 10° NNW 03:34:02 18° N 03:37:50 10° NE visible
27 Sep ? 05:12:33 10° NNW 05:17:46 36° NE 05:22:37 10° ESE visible
27 Sep ? 23:20:03 18° NNE 23:20:03 18° NNE 23:21:33 10° NE visible
28 Sep ? 00:59:24 23° NNW 00:59:24 23° NNW 01:03:32 10° NNE visible
28 Sep ? 02:39:18 10° NW 02:43:03 17° N 02:46:41 10° NE visible
28 Sep ? 04:22:20 10° NNW 04:27:05 26° NNE 04:31:33 10° E visible
28 Sep ? 22:31:07 11° NE 22:31:07 11° NE 22:31:19 10° NE visible
29 Sep ? 00:10:28 24° N 00:10:28 24° N 00:13:17 10° NNE visible
29 Sep ? 01:49:50 15° NW 01:52:05 18° N 01:55:50 10° NE visible
29 Sep ? 03:31:59 10° NNW 03:36:15 21° NNE 03:40:19 10° ENE visible
29 Sep ? 05:14:11 10° NNW 05:19:40 50° NE 05:24:42 10° ESE visible
29 Sep ? 23:21:32 18° NNE 23:21:32 18° NNE 23:23:07 10° NNE visible
30 Sep ? 01:00:54 20° NNW 01:01:08 20° NNW 01:05:16 10° NNE visible
30 Sep ? 02:41:28 10° NNW 02:45:19 18° N 02:49:03 10° NE visible
30 Sep ? 04:23:59 10° NNW 04:29:07 34° NE 04:33:52 10° E visible
30 Sep ? 22:32:37 12° NE 22:32:37 12° NE 22:32:56 10° NE visible
01 Oct ? 00:11:59 21° N 00:11:59 21° N 00:14:55 10° NNE visible
01 Oct ? 01:51:21 12° NNW 01:54:21 17° N 01:57:57 10° NE visible
01 Oct ? 03:33:43 10° NNW 03:38:23 25° NNE 03:42:47 10° E visible
01 Oct ? 05:15:48 10° NW 05:21:25 75° NE 05:26:30 10° SE visible
01 Oct ? 23:23:05 18° NNE 23:23:05 18° NNE 23:24:41 10° NNE visible
02 Oct ? 01:02:27 17° NNW 01:03:22 18° N 01:07:08 10° NNE visible
02 Oct ? 02:43:23 10° NNW 02:47:33 20° NNE 02:51:32 10° ENE visible
02 Oct ? 04:25:35 10° NNW 04:31:01 47° NE 04:35:59 10° ESE visible
02 Oct ? 22:34:14 11° NNE 22:34:14 11° NNE 22:34:30 10° NNE visible
03 Oct ? 00:13:36 19° N 00:13:36 19° N 00:16:36 10° NNE visible
03 Oct ? 01:52:58 10° NNW 01:56:36 18° N 02:00:16 10° NE visible
03 Oct ? 03:35:23 10° NNW 03:40:26 32° NNE 03:45:07 10° E visible
03 Oct ? 05:17:30 10° NW 05:23:00 71° WSW 05:28:00 10° SSE visible
03 Oct ? 23:24:48 16° NNE 23:24:48 16° NNE 23:26:16 10° NNE visible
04 Oct ? 01:04:11 16° NNW 01:05:37 17° N 01:09:12 10° NE visible
04 Oct ? 02:45:07 10° NNW 02:49:42 24° NNE 02:53:59 10° ENE visible
04 Oct ? 04:27:12 10° NW 04:32:46 70° NE 04:37:49 10° SE visible
